Regional Weather Roundup
Issued by NWS

Home | Current Version | Previous Version | Text Only | Print | Product List | Glossary On
Versions: 1 2 3 4 5 6 7 8 9 10 11 12 13 14 15 16 17 18 19 20 21 22 23 24 25 26 27 28 29 30 31 32 33 34 35 36 37 38 39 40 41 42 43 44 45 46 47 48 49 50
000
ASUS45 KTFX 050510
RWRMT
MONTANA REGIONAL WEATHER ROUNDUP
NATIONAL WEATHER SERVICE GREAT FALLS MT
1100 PM MDT SAT JUL 04 2015

NOTE: "FAIR" INDICATES FEW OR NO CLOUDS BELOW 12000 FEET WITH NO
SIGNIFICANT WEATHER AND/OR OBSTRUCTIONS TO VISIBILITY.

MTZ001>007-043-050600-
WEST OF THE DIVIDE

CITY           SKY/WX    TMP DP  RH WIND       PRES   REMARKS
KALISPELL      PTCLDY    75  52  44 NE28G36   29.80R
MISSOULA       MOCLDY    77  36  22 NW5       29.80R
BUTTE          MOCLDY    77  36  22 NW6       29.95R
MULLAN PASS    PTCLDY    70  37  29 VRB3      30.02R
DEER LODGE       N/A     73  39  29 CALM      29.92R
EUREKA           N/A     75  48  38 NE23G29   29.78R
HAMILTON         N/A     79  41  25 SE5       29.83R
LIBBY            N/A     75  48  38 S5        29.76R
PLAINS           N/A     74  46  36 CALM      29.79R
RONAN            N/A     71  54  55 CALM      29.86R
THOMPSON FALLS   N/A     77  43  29 N1        29.82R
$$

MTZ008-052>055-050600-
SOUTHWEST MONTANA

CITY           SKY/WX    TMP DP  RH WIND       PRES   REMARKS
BOZEMAN        MOCLDY    77  44  30 S14       29.84R
DILLON         MOCLDY    73  32  22 S6        29.89R
W YELLOWSTONE  MOCLDY    68  41  37 E5        30.06R
THREE FORKS      N/A     69  57  65 CALM      29.84R
TWIN BRIDGES     N/A     66  41  40 SE3       29.89R
$$

MTZ009-010-012-014-046-048-049-054-050600-
EAST SLOPES AND CENTRAL MONTANA

CITY           SKY/WX    TMP DP  RH WIND       PRES   REMARKS
CUT BANK       CLOUDY    54  52  93 N26       30.04R FOG
GREAT FALLS    PTCLDY    68  51  54 N12       29.81R
MALMSTROM AFB  PTCLDY    75  52  45 N7        29.80R
HELENA         MOCLDY    80  50  34 W8        29.81R
CONRAD           N/A     58  58 100 NW16      30.04R
$$

MTZ011-013-016-021-045-047-050-051-050600-
NORTH CENTRAL MONTANA

CITY           SKY/WX    TMP DP  RH WIND       PRES   REMARKS
LEWISTOWN      MOCLDY    72  55  55 SE14      29.84F
FORT BENTON      N/A     75  54  46 N20       29.82R
$$

MTZ017>020-022>027-061-062-050600-
NORTHEAST MONTANA

CITY           SKY/WX    TMP DP  RH WIND       PRES   REMARKS
GLASGOW        CLEAR     70  53  54 E18       29.77F
JORDAN           N/A     74  58  57 E10       29.78F
SIDNEY         CLEAR     72  63  73 N13       29.78S
WOLF POINT     CLEAR     70  56  61 NE12      29.79F
PLENTYWOOD       N/A     63  57  82 N9        29.82F
POPLAR           N/A     68  57  68 NE8       29.79F
SCOBEY           N/A     62  50  65 CALM      29.84F
$$

MTZ028>42-056>058-050600-
SOUTHCENTRAL AND SOUTHEAST MONTANA

CITY           SKY/WX    TMP DP  RH WIND       PRES   REMARKS
BAKER          CLEAR     67  56  67 SE5       29.79S
BILLINGS       PTCLDY    80  48  32 NE12      29.81R
LIVINGSTON     MOCLDY    76  46  34 SE10      29.86S
MILES CITY     MOCLDY    74  57  55 N8        29.76S
EKALAKA          N/A     74  56  53 SE8       29.83R
FORSYTH          N/A     75  55  50 CALM      29.75S
LAUREL           N/A     77  45  32 N3        29.82S
ROUNDUP          N/A     78  57  48 NE6       29.75F
$$

REGIONAL REPORTS...DAKOTAS

CITY           SKY/WX    TMP DP  RH WIND       PRES   REMARKS
WILLISTON      CLEAR     71  62  73 N14       29.78F
MINOT          CLEAR     66  62  87 N10       29.74R
DICKINSON      CLEAR     68  64  87 NE6       29.77R FOG
BEACH          FAIR      63  63 100 N5        29.80S
CROSBY         FAIR      63  63 100 N8        29.80F
BISMARCK       CLEAR     76  69  79 S6        29.71F
GRAND FORKS    CLOUDY    75  67  76 S10       29.71R
FARGO          MOCLDY    75  65  70 S14       29.75F
BUFFALO SD       N/A     75  52  44 E5        29.74R
RAPID CITY     CLEAR     69  63  81 W5        29.82S HAZE
$$

REGIONAL REPORTS...WYOMING/IDAHO/WASHINGTON

CITY           SKY/WX    TMP DP  RH WIND       PRES   REMARKS
GILLETTE       PTCLDY    73  48  41 S12       29.86S
SHERIDAN       PTCLDY    67  58  72 S5        29.81F
BUFFALO WY     PTCLDY    72  53  51 S7        29.92S
CODY           PTCLDY    79  43  27 W5        29.91S
YELLOWSTONE LA   N/A     59  41  51 CALM      30.18S
IDAHO FALLS    CLOUDY    78  46  32 S15       29.90R
SALMON         MOCLDY    81  45  28 S5        29.82R
BOISE          CLOUDY    86  40  19 S3        29.76R
SPOKANE        PTCLDY    87  36  16 N10       29.73R
$$

REGIONAL REPORTS...ALBERTA

CITY           SKY/WX    TMP DP  RH WIND       PRES   REMARKS
EDMONTON       CLOUDY    57  43  58 NW12G20   30.04R
CALGARY        CLOUDY    55  43  62 NW10G17   30.14R
LETHBRIDGE     LGT RAIN  55  54  94 NW14      30.12R FOG
MEDICINE HAT   LGT RAIN  57  54  88 N18       30.00R
WATERTON GATE    N/A     48  46  93 N9          N/A
CARDSTON         N/A     52  52 100 NW9         N/A
MILK RIVER       N/A     52  52 100 N20G26      N/A
ONEFOUR          N/A     57  54  88 N20G26      N/A
$$

REGIONAL REPORTS...SASKATCHEWAN

CITY           SKY/WX    TMP DP  RH WIND       PRES   REMARKS
SWIFT CURRENT  CLOUDY    64  50  59 N13G20    29.93R HAZE
REGINA         MOCLDY    63  63 100 N8        29.84S SMOKE
SASKATOON      CLOUDY    59  50  72 W7        29.90R SMOKE
CYPRESS HILLS    N/A     52  48  87 N9          N/A
VAL MARIE        N/A     64  54  68 N7          N/A
ROCKGLEN         N/A     63  55  77 N5          N/A
ASSINIBOIA       N/A     57  48  72 NW12        N/A
$$


USA.gov is the U.S. government's official web portal to all federal, state and local government web resources and services.